Tracking 20370 objects as of 20-Feb-2020
HD Live streaming from Space Station
objects crossing your sky now
Track the group of recently launched Starlink satellites

COSMOS 2147

Track COSMOS 2147 now!
10-day predictions
COSMOS 2147 is classified as:


NORAD ID: 21303
Int'l Code: 1991-033E
Perigee: 1,395.4 km
Apogee: 1,422.9 km
Inclination: 82.6 °
Period: 113.8 minutes
Semi major axis: 7780 km
RCS: 1.105 m2 (large)
Launch date: May 16, 1991
Source: Commonwealth of Independent States (former USSR) (CIS)
Launch site: PLESETSK MISSILE AND SPACE COMPLEX (PKMTR)
aabbcc
Your satellite tracking list
Your tracking list is empty




NASA's NSSDC Master Catalog

Two Line Element Set (TLE):
1 21303U 91033E   20050.48322321 +.00000003 +00000-0 -40254-4 0  9990
2 21303 082.5691 319.0385 0017704 218.9719 314.6253 12.65090538328081
Source of the keplerian elements: AFSPC